User: anonymous   Login
Location: Unspecified
(0.0000°N, 0.0000°E)
Time: 01:30:24
(UTC+02:00)
Language:

NATO 3D Rocket - Orbit

View from above orbital plane
View from above orbital plane
View from above satellite
View from above satellite

Ground track
Ground track

The orbit data is extracted from the following two-line orbital elements,

1 15392U 84115B   14298.76110269  .00000174  00000-0  27532-4 0  2094
2 15392 021.4914 042.4322 1035292 054.4310 104.6807 12.45435384363556
Epoch (UTC): 25 October 2014 18:15:59
Eccentricity: 0.1035292
inclination: 21.4914°
perigee height: 670 km
apogee height: 2297 km
right ascension of ascending node: 42.4322°
argument of perigee: 54.4310°
revolutions per day: 12.45435384
mean anomaly at epoch: 104.6807°
orbit number at epoch: 36355

The dashed part of the orbit path shows where the satellite is in the earth's shadow,  

DLR